STARLINK-1851

Last updated on Tue Nov 24 2020 00:02:03 GMT+0000 (Coordinated Universal Time)

1 46783U 20074AW 20328.58334491 .00007541 00000-0 88077-4 0 9994 2 46783 53.0549 13.4343 0001214 56.2069 4.8250 15.62765156 1802
UTC large
Height (km)
Speed (km/s)
/
Latitude / Longitude
Inclination (degrees)
Orbital Period (minutes)
Azimuth
Elevation
Range (km)
Doppler Factor

Next 0 passes for location: London (51.5072 / 0.1276)

Sorry there are no passes over London.